Location: Dortmund
(51.5019°N, 7.6520°E)
Time: 00:53:30
(UTC+01:00)

ISS - Pass Details

Date: 16 November 2017
Orbit: 402 x 407 km, 51.6° (Epoch: 23 November)

Event Time Altitude Azimuth Distance (km) Brightness Sun altitude
Exits shadow 05:38:01 20° 183° (S) 991 -1.9 -20.2°
Drops below altitude 10° 05:39:39 10° 157° (SSE) 1,451 -0.7 -19.9°
Sets 05:41:57 0° 143° (SE) 2,306 0.6 -19.5°
